Tracking 28895 objects as of 27-May-2024
HD Live streaming from Space Station
objects crossing your sky now

STARLINK-1854

Track STARLINK-1854 now!
10-day predictions
STARLINK-1854 is classified as:


NORAD ID: 47141
Int'l Code: 2020-088V
Perigee: 553.4 km
Apogee: 555.3 km
Inclination: 53.1 °
Period: 95.6 minutes
Semi major axis: 6925 km
RCS: Unknown
Launch date: November 25, 2020
Source: United States (US)
Launch site: AIR FORCE EASTERN TEST RANGE (AFETR)
Your satellite tracking list
Your tracking list is empty




NASA's NSSDC Master Catalog

Two Line Element Set (TLE):
1 47141U 20088V   24147.90880530  .00002499  00000-0  18661-3 0  9995
2 47141  53.0547 337.5746 0001336  90.8046 269.3096 15.06398634193742
Source of the keplerian elements: AFSPC